Weather History for KCOD - December, 2012

Change the Weather History Date:

Friday, December 7, 2012

  Actual Average (KGEY) Record (KGEY)
Temperature  
Mean Temperature 25 °F 19 °F  
Max Temperature 35 °F 30 °F 50 °F (2008)
Min Temperature 15 °F 8 °F -21 °F (2013)
Degree Days  
Heating Degree Days 40 46  
Month to date heating degree days 312  
Since 1 July heating degree days 2169  
Cooling Degree Days 0 0  
Month to date cooling degree days 0  
Year to date cooling degree days 669  
Moisture  
Dew Point 18 °F    
Average Humidity 72    
Maximum Humidity 100    
Minimum Humidity 41    
Precipitation  
Precipitation 0.00 in 0.01 in 0.14 in (2003)
Month to date precipitation 0.10  
Year to date precipitation 7.33  
Sea Level Pressure  
Sea Level Pressure 29.82 in    
Wind  
Wind Speed 7 mph (SW)    
Max Wind Speed 21 mph    
Max Gust Speed 28 mph    
Visibility 10 miles    
Events      
T = Trace of Precipitation, MM = Missing Value Source: NWS Daily Summary

Daily Weather History Graph

Daily Weather History Graph

Search for Another Location

Airport or City:

Trip Planner

Search our weather history database for the weather conditions in past years. The results will help you decide how hot, cold, wet, or windy it might be!

Date:

Astronomy

Dec. 07, 2012 Rise Set
Actual Time 7:39 AM MST 4:36 PM MST
Civil Twilight 7:06 AM MST 5:09 PM MST
Nautical Twilight 6:29 AM MST 5:45 PM MST
Astronomical Twilight 5:54 AM MST 6:21 PM MST
Moon 12:48 AM MST (12/7) 12:46 PM MST (12/7)
Length of Visible Light 10h 03m
Length of Day
8h 56m
Last Quarter, 38% of the Moon is Illuminated
Dec 7
Last Quarter
Dec 13
New
Dec 19
First Quarter
Dec 28
Full
Jan 4
Last Quarter

Hourly Weather History & Observations

Time (MST) Temp. Windchill Dew Point Humidity Pressure Visibility Wind Dir Wind Speed Gust Speed Precip Events Conditions
12:15 AM 26.6 °F 17.5 °F 24.8 °F 93% 29.84 in 10.0 mi North 9.2 mph - N/A   Overcast
12:35 AM 26.6 °F 18.2 °F 24.8 °F 93% 29.85 in 5.0 mi North 8.1 mph - N/A   Overcast
12:55 AM 26.6 °F 19.1 °F 24.8 °F 93% 29.84 in 1.0 mi North 6.9 mph - N/A   Overcast
1:15 AM 26.6 °F 21.2 °F 24.8 °F 93% 29.84 in 5.0 mi North 4.6 mph - N/A   Overcast
1:35 AM 26.6 °F 20.0 °F 24.8 °F 93% 29.85 in 10.0 mi North 5.8 mph - N/A   Overcast
1:55 AM 26.6 °F 21.2 °F 24.8 °F 93% 29.85 in 10.0 mi North 4.6 mph - N/A   Overcast
2:15 AM 24.8 °F - 24.8 °F 100% 29.86 in 10.0 mi Calm Calm - N/A   Overcast
2:35 AM 24.8 °F - 24.8 °F 100% 29.86 in 4.0 mi Calm Calm - N/A   Overcast
2:55 AM 24.8 °F - 24.8 °F 100% 29.86 in 2.5 mi Calm Calm - N/A   Overcast
3:15 AM 24.8 °F - 23.0 °F 93% 29.86 in 10.0 mi Calm Calm - N/A   Overcast
3:35 AM 23.0 °F 15.8 °F 23.0 °F 100% 29.86 in 10.0 mi South 5.8 mph - N/A   Mostly Cloudy
3:55 AM 21.2 °F 13.6 °F 21.2 °F 100% 29.86 in 10.0 mi SSW 5.8 mph - N/A   Mostly Cloudy
4:15 AM 19.4 °F 14.3 °F 19.4 °F 100% 29.84 in 10.0 mi South 3.5 mph - N/A   Scattered Clouds
4:35 AM 19.4 °F 11.5 °F 17.6 °F 93% 29.85 in 10.0 mi South 5.8 mph - N/A   Scattered Clouds
4:55 AM 17.6 °F 6.4 °F 15.8 °F 93% 29.84 in 10.0 mi South 9.2 mph - N/A   Partly Cloudy
5:15 AM 17.6 °F 9.3 °F 15.8 °F 93% 29.85 in 10.0 mi South 5.8 mph - N/A   Clear
5:35 AM 17.6 °F 10.7 °F 15.8 °F 93% 29.85 in 10.0 mi SSE 4.6 mph - N/A   Clear
5:55 AM 15.8 °F 7.2 °F 14.0 °F 93% 29.85 in 10.0 mi SSW 5.8 mph - N/A   Partly Cloudy
6:15 AM 19.4 °F 10.4 °F 17.6 °F 93% 29.85 in 10.0 mi SW 6.9 mph - N/A   Clear
6:35 AM 17.6 °F 8.2 °F 17.6 °F 100% 29.84 in 10.0 mi South 6.9 mph - N/A   Clear
6:56 AM 17.6 °F 9.3 °F 15.8 °F 93% 29.84 in 10.0 mi SSE 5.8 mph - N/A   Clear
7:15 AM 19.4 °F - 19.4 °F 100% 29.85 in 10.0 mi Calm Calm - N/A   Clear
7:35 AM 19.4 °F 11.5 °F 17.6 °F 93% 29.85 in 10.0 mi SSE 5.8 mph - N/A   Clear
8:15 AM 21.2 °F 11.7 °F 17.6 °F 86% 29.86 in 10.0 mi South 8.1 mph - N/A   Clear
8:35 AM 24.8 °F 19.1 °F 19.4 °F 80% 29.87 in 10.0 mi WSW 4.6 mph - N/A   Clear
8:55 AM 24.8 °F - 19.4 °F 80% 29.87 in 10.0 mi Calm Calm - N/A   Scattered Clouds
9:15 AM 21.2 °F - 17.6 °F 86% 29.87 in 10.0 mi Calm Calm - N/A   Scattered Clouds
9:35 AM 30.2 °F 24.3 °F 19.4 °F 64% 29.88 in 10.0 mi West 5.8 mph - N/A   Partly Cloudy
9:55 AM 30.2 °F 24.3 °F 17.6 °F 60% 29.88 in 10.0 mi WSW 5.8 mph - N/A   Clear
10:35 AM 32.0 °F 27.5 °F 17.6 °F 55% 29.89 in 10.0 mi WSW 4.6 mph - N/A   Clear
10:55 AM 33.8 °F - 17.6 °F 52% 29.88 in 10.0 mi Calm Calm - N/A   Clear
11:15 AM 35.6 °F 32.8 °F 17.6 °F 48% 29.88 in 10.0 mi WSW 3.5 mph - N/A   Partly Cloudy
11:35 AM 33.8 °F 27.0 °F 15.8 °F 48% 29.87 in 10.0 mi West 8.1 mph - N/A   Partly Cloudy
11:55 AM 33.8 °F 26.4 °F 15.8 °F 48% 29.87 in 10.0 mi WSW 9.2 mph 19.6 mph N/A   Partly Cloudy
12:15 PM 33.8 °F 25.8 °F 15.8 °F 48% 29.87 in 10.0 mi WSW 10.4 mph - N/A   Clear
12:35 PM 33.8 °F 25.3 °F 14.0 °F 44% 29.86 in 10.0 mi WSW 11.5 mph 17.3 mph N/A   Clear
12:55 PM 33.8 °F 25.3 °F 12.2 °F 41% 29.85 in 10.0 mi WSW 11.5 mph 19.6 mph N/A   Clear
1:55 PM 33.8 °F 25.8 °F 14.0 °F 44% 29.85 in 10.0 mi West 10.4 mph 21.9 mph N/A   Clear
2:15 PM 33.8 °F 25.3 °F 12.2 °F 41% 29.85 in 10.0 mi West 11.5 mph 23.0 mph N/A   Clear
2:35 PM 33.8 °F 25.8 °F 14.0 °F 44% 29.84 in 10.0 mi West 10.4 mph 19.6 mph N/A   Clear
3:15 PM 33.8 °F 26.4 °F 12.2 °F 41% 29.84 in 10.0 mi West 9.2 mph 16.1 mph N/A   Clear
3:35 PM 32.0 °F 24.2 °F 12.2 °F 44% 29.84 in 10.0 mi West 9.2 mph 17.3 mph N/A   Clear
3:55 PM 30.2 °F 21.3 °F 14.0 °F 51% 29.83 in 10.0 mi West 10.4 mph 16.1 mph N/A   Clear
4:15 PM 30.2 °F 20.2 °F 14.0 °F 51% 29.83 in 10.0 mi West 12.7 mph 19.6 mph N/A   Clear
4:35 PM 30.2 °F 21.3 °F 15.8 °F 55% 29.82 in 10.0 mi West 10.4 mph 19.6 mph N/A   Clear
4:55 PM 30.2 °F 23.4 °F 15.8 °F 55% 29.82 in 10.0 mi West 6.9 mph 18.4 mph N/A   Clear
5:15 PM 30.2 °F 25.4 °F 14.0 °F 51% 29.82 in 10.0 mi WSW 4.6 mph - N/A   Clear
5:35 PM 30.2 °F 21.3 °F 15.8 °F 55% 29.80 in 10.0 mi WSW 10.4 mph 23.0 mph N/A   Clear
5:55 PM 30.2 °F 23.4 °F 15.8 °F 55% 29.80 in 10.0 mi West 6.9 mph - N/A   Clear
6:15 PM 30.2 °F 23.4 °F 15.8 °F 55% 29.80 in 10.0 mi WSW 6.9 mph - N/A   Clear
6:35 PM 30.2 °F 23.4 °F 15.8 °F 55% 29.79 in 10.0 mi West 6.9 mph - N/A   Clear
7:35 PM 26.6 °F 12.7 °F 17.6 °F 69% 29.74 in 10.0 mi ESE 20.7 mph 27.6 mph N/A   Clear
7:55 PM 24.8 °F 12.4 °F 17.6 °F 74% 29.74 in 10.0 mi ESE 15.0 mph 20.7 mph N/A   Clear
8:15 PM 28.4 °F 18.5 °F 15.8 °F 59% 29.73 in 10.0 mi ESE 11.5 mph 16.1 mph N/A   Clear
8:35 PM 28.4 °F 18.5 °F 15.8 °F 59% 29.73 in 10.0 mi East 11.5 mph - N/A   Clear
8:55 PM 28.4 °F 19.1 °F 17.6 °F 64% 29.72 in 10.0 mi East 10.4 mph 18.4 mph N/A   Clear
9:15 PM 26.6 °F 20.0 °F 17.6 °F 69% 29.70 in 10.0 mi East 5.8 mph 17.3 mph N/A   Clear
9:35 PM 28.4 °F 16.2 °F 17.6 °F 64% 29.69 in 10.0 mi ESE 17.3 mph 20.7 mph N/A   Clear
10:15 PM 28.4 °F 17.5 °F 19.4 °F 69% 29.68 in 10.0 mi ESE 13.8 mph 21.9 mph N/A   Clear
10:35 PM 28.4 °F 17.0 °F 17.6 °F 64% 29.67 in 10.0 mi East 15.0 mph - N/A   Clear
10:55 PM 30.2 °F 20.2 °F 19.4 °F 64% 29.67 in 10.0 mi ESE 12.7 mph 16.1 mph N/A   Clear
11:35 PM 30.2 °F 25.4 °F 17.6 °F 60% 29.66 in 10.0 mi ENE 4.6 mph - N/A   Clear
11:55 PM 28.4 °F 20.4 °F 17.6 °F 64% 29.65 in 10.0 mi WSW 8.1 mph - N/A   Clear